Location: Române?ti
(45.8000°N, 22.3167°E)
Time: 14:05:48
(UTC+00:00)

Daily predictions for brighter satellites

Satellite Brightness Start Highest point End
(mag) Time Altitude Azimuth Time Altitude Azimuth Time Altitude Azimuth
Okean-O 2.7 18:54:54 10° SSE 18:59:18 88° ENE 19:03:44 10° NNW
ATLAS CENTAUR R/B 4.2 18:57:41 10° W 19:00:23 20° NW 19:03:10 10° N
Cosmos 2266 Rocket 4.3 18:54:27 10° SSW 19:00:49 77° W 19:07:17 10° N
GENESIS II 4.2 18:58:11 10° SW 19:01:49 78° NW 19:05:28 10° NE
Cosmos 1862 Rocket 3.7 18:58:24 10° S 19:02:45 62° E 19:07:09 10° NNE
CZ-4C R/B 2.8 19:00:18 10° SSE 19:03:53 26° ESE 19:08:07 10° ENE
Cosmos 1356 Rocket 3.5 19:00:08 10° SSW 19:04:20 83° WNW 19:08:32 10° N
S3M 4.4 18:58:15 10° NNW 19:04:33 69° W 19:10:43 10° S
Cosmos 839 Rocket 4.1 18:58:18 10° NW 19:05:08 88° NE 19:11:16 10° SSE
Okean O Rocket 2.8 19:01:49 10° S 19:05:58 42° W 19:10:08 10° NNW
Meteor 2-10 Rocket 4.0 19:02:27 10° NNW 19:07:49 66° W 19:12:56 10° S
USA 245 4.4 19:03:41 10° SE 19:07:53 47° ENE 19:13:01 10° N
MOS 1 4.4 19:02:34 10° SSE 19:08:13 87° WSW 19:13:54 10° NNW
Ariane Rocket 3.8 19:04:52 10° SE 19:09:31 37° ENE 19:14:10 10° N
MetOp-B 4.2 19:04:54 10° SSE 19:10:15 80° ENE 19:15:38 10° NNW
CZ-4 R/B 4.2 19:09:43 10° WSW 19:11:52 14° W 19:14:04 10° WNW
Cosmos 2228 Rocket 3.3 19:07:31 10° SSW 19:12:05 79° W 19:16:41 10° N
BREEZE-M DEB (TANK) 4.2 19:04:21 10° W 19:13:49 47° NNW 19:16:49 10° NE
Cosmos 968 Rocket 4.2 19:09:00 10° SW 19:14:06 60° WNW 19:19:17 10° NNE
Terra 2.2 19:11:31 10° SE 19:16:03 49° ENE 19:20:36 10° N
Cosmos 807 3.9 19:13:30 10° S 19:16:26 85° E 19:19:21 10° N
Meteor 1-4 Rocket 1.9 19:15:18 10° S 19:18:16 77° E 19:21:18 10° NNE
Cosmos 1242 Rocket 3.2 19:16:10 10° SSE 19:18:19 23° E 19:20:32 10° NE
MOS 1 Rocket 4.0 19:15:53 10° SE 19:20:58 49° ENE 19:25:52 10° N
Cosmos 2360 Rocket 3.4 19:16:21 10° NW 19:21:33 38° WSW 19:26:43 10° S
USA 234 4.1 19:16:20 10° ENE 19:21:37 25° SE 19:26:51 10° S
Cosmos 1707 Rocket 3.9 19:17:25 10° SSW 19:21:50 70° W 19:26:15 10° N
COSMOS 2428 3.0 19:19:57 10° NNW 19:25:36 61° ENE 19:30:54 12° SE
ARGOS Delta rocket 4.0 19:22:10 10° S 19:26:31 65° W 19:30:55 10° NNW
Cosmos 1953 2.4 19:27:16 10° N 19:31:02 53° ENE 19:34:18 13° SSE
SPOT 5 3.1 19:26:46 10° S 19:31:06 63° W 19:35:37 10° NNW
IRS-1C Rocket 4.2 19:28:22 10° S 19:33:36 78° WSW 19:38:53 10° NNW
Cosmos 1733 Rocket 3.9 19:31:49 10° NNW 19:36:06 49° W 19:40:22 10° SSW
Meteor 2-20 Rocket 4.4 19:38:35 10° N 19:44:44 88° E 19:50:31 10° S
ERS-1 Rocket 3.1 19:41:34 10° S 19:46:34 75° WSW 19:51:37 10° NNW
BlueWalker 3 3.6 19:43:18 10° W 19:46:48 36° NNW 19:50:17 10° NE
SL-08 R/B 4.5 19:41:18 10° S 19:47:18 65° E 19:53:21 10° NNE
NOSS 5 (C) 4.5 19:44:30 10° NW 19:47:37 61° SW 19:49:53 18° SSE
Cosmos 1315 Rocket 3.2 19:47:36 10° SSW 19:51:34 66° WNW 19:55:33 10° N
Resurs 01 Rocket 4.5 19:50:57 10° WSW 19:52:25 11° W 19:53:54 10° WNW
SL-4 R/B 2.3 19:51:16 10° WNW 19:55:00 49° SW 19:57:36 19° SSE
Cosmos 2084 Rocket 3.5 19:52:22 10° SSW 19:56:36 56° SE 20:00:42 10° NE
EXPRESS MD2 3.3 19:54:44 10° WNW 19:57:16 39° N 19:59:02 13° E
Cosmos 1908 Rocket 3.5 19:54:50 10° N 19:59:10 86° W 20:02:37 16° S
Cosmos 1408 3.1 20:00:53 24° SE 20:01:51 30° E 20:04:31 10° NNE
SL-16 R/B 4.1 19:58:45 10° N 20:02:53 20° NE 20:07:00 10° E
Cosmos 1782 Rocket 3.8 19:59:00 10° N 20:03:16 54° ENE 20:06:02 21° SSE
Cosmos 1570 Rocket 4.3 19:58:07 10° NNW 20:03:26 66° WSW 20:07:46 15° S
Cosmos 2237 Rocket 2.7 19:58:51 10° NNW 20:04:22 51° ENE 20:08:28 18° SE
Cosmos 2333 Rocket 4.4 20:02:13 10° WNW 20:06:08 19° W 20:10:01 10° SW
Cosmos 1300 Rocket 3.9 20:02:47 10° N 20:07:00 49° ENE 20:09:35 22° SE
Cosmos 2227 Rocket 3.2 20:06:01 19° SE 20:08:44 27° ESE 20:13:23 10° NE
Cosmos 836 Rocket 4.5 20:07:07 10° NNW 20:12:21 86° WSW 20:16:01 20° SSE
SL-23 DEB 4.3 20:13:51 10° SSW 20:17:21 46° SE 20:22:48 10° ENE
NOSS 0 Rocket 4.0 20:12:14 10° NNW 20:18:31 81° WSW 20:22:55 21° SSE
Cosmos 1980 3.8 20:13:27 10° NNW 20:19:08 69° ENE 20:22:53 22° SE
SJ 16-02 4.2 20:16:45 10° W 20:19:43 18° NW 20:22:42 10° NNW
Meteor 2-5 Rocket 4.5 20:16:54 20° SE 20:20:15 38° E 20:25:32 10° NNE
Landsat 4 4.2 20:19:39 19° SSW 20:21:48 45° W 20:25:06 10° NNW
Spot 2 Rocket 4.3 20:18:30 13° S 20:22:51 47° W 20:27:47 10° NNW
COSMOS 2455 3.0 20:17:14 10° SW 20:23:16 76° NW 20:29:20 10° NNE
Cosmos 1777 Rocket 4.3 20:20:52 19° S 20:24:24 50° ESE 20:29:30 10° NNE
Cosmos 1455 3.5 20:23:00 10° NNW 20:26:10 31° W 20:28:44 14° SSW
GP-B 3.1 20:22:39 10° N 20:27:03 66° E 20:29:30 26° SSE
Cosmos 2297 Rocket 2.1 20:21:44 10° SSW 20:27:20 70° ESE 20:32:58 10° NNE
SeaSat 1 2.5 20:24:21 23° SSE 20:27:28 71° WSW 20:32:24 10° NNW
ARIANE 5 R/B 3.7 20:26:17 20° ESE 20:28:30 32° ENE 20:32:24 10° N
Landsat 5 3.4 20:24:36 10° NNE 20:28:48 88° E 20:31:54 18° SSW
Cosmos 1174 3.9 20:25:01 10° NNW 20:29:46 76° NE 20:31:42 29° SE
SPOT 3 Rocket 4.3 20:27:21 15° S 20:31:25 47° W 20:36:26 10° NNW
Cosmos 1825 4.1 20:33:14 13° E 20:33:21 13° E 20:35:01 10° ENE
Cosmos 2219 Rocket 4.2 20:30:41 10° NW 20:34:36 19° W 20:38:32 10° SW
MetOp-A 4.0 20:31:43 23° S 20:35:05 84° WSW 20:40:16 10° NNW
Cosmos 1503 Rocket 4.0 20:31:32 15° SSW 20:35:56 76° ESE 20:41:13 10° NNE
Cosmos 1703 3.3 20:36:08 34° SSE 20:37:23 53° E 20:40:59 10° NNE
CENTAUR R/B 2.6 20:35:25 20° S 20:39:00 47° ESE 20:45:26 10° NE
BREEZE-M R/B 4.3 20:42:22 22° SE 20:42:25 22° SE 20:47:34 10° ENE
Cosmos 2219 4.2 20:42:06 24° SE 20:43:46 28° ESE 20:48:26 10° NE
Cosmos 1745 Rocket 4.1 20:38:43 14° SSW 20:44:16 78° W 20:50:40 10° N
Cosmos 2263 Rocket 3.5 20:45:28 19° ESE 20:46:36 21° E 20:50:38 10° NE
Cosmos 371 Rocket 3.8 20:43:13 10° SW 20:47:58 59° WNW 20:52:45 10° NNE
Ariane Rocket 4.4 20:44:24 12° SSW 20:48:28 30° W 20:52:57 10° NW
Nadezhda 1 Rocket 4.3 20:42:33 10° NNW 20:48:42 63° W 20:53:01 20° SSW
Cosmos 1461 4.5 20:51:06 18° E 20:51:06 18° E 20:53:02 10° ENE
CZ-4C R/B 3.0 20:47:22 10° WSW 20:51:47 48° NW 20:57:21 10° NNE
Meteor 1-24 Rocket 3.7 20:50:34 26° S 20:53:50 70° E 20:59:19 10° NNE
Terra 3.9 20:50:27 10° SW 20:53:53 20° W 20:57:22 10° NW
Cosmos 2151 Rocket 4.3 20:50:45 10° N 20:54:54 40° ENE 20:56:29 29° ESE
Cosmos 1892 3.6 20:57:22 28° E 20:57:36 29° E 21:00:42 10° NNE
Okean 2 Rocket 3.8 20:55:06 10° N 20:59:22 41° ENE 21:01:01 30° ESE
USA 234 3.2 20:58:37 10° NE 21:05:12 85° SE 21:11:45 10° SW
COSMOS 2428 4.5 21:05:04 10° NW 21:09:22 22° W 21:12:54 13° SW
ALOS 2 3.9 21:09:12 23° ESE 21:10:57 31° ENE 21:14:50 10° N
USA 281 3.4 21:09:22 25° SE 21:13:19 69° ENE 21:19:53 10° NNW
Cosmos 405 Rocket 2.6 21:13:03 10° NNW 21:16:51 74° W 21:17:44 49° SSW
Cosmos 2074 Rocket 4.4 21:14:12 29° SE 21:16:56 47° E 21:22:51 10° NNE
BREEZE-M DEB (TANK) 4.2 21:15:53 10° WNW 21:19:09 63° NNE 21:29:11 10° E
H-2A R/B 4.3 21:18:56 10° ENE 21:20:01 11° E 21:20:15 11° E
PSLV R/B 3.7 21:17:16 10° NNE 21:21:16 80° ESE 21:22:19 48° S
Cosmos 2181 Rocket 3.9 21:15:17 10° N 21:21:27 79° E 21:24:25 33° SSE
Cosmos 1354 Rocket 4.5 21:19:11 16° SW 21:23:23 59° WNW 21:28:38 10° NNE
Aureole 1 Rocket 3.7 21:23:49 34° ESE 21:24:19 35° E 21:28:46 10° NE
BlueWalker 3 4.2 21:22:29 10° NW 21:25:40 25° N 21:28:51 10° ENE
Cosmos 990 Rocket 3.9 21:24:51 37° S 21:26:51 69° ESE 21:31:58 10° NNE
CZ-2C R/B 4.0 21:24:25 10° N 21:28:48 63° WNW 21:30:58 29° SW
MINOTAUR 4 R/B 3.5 21:27:25 10° N 21:30:12 75° NW 21:30:12 75° NW
Cosmos 2221 Rocket 3.5 21:30:14 46° S 21:31:29 75° E 21:35:55 10° NNE
Cosmos 1328 4.1 21:34:21 44° ESE 21:34:45 46° E 21:38:29 10° NNE
Okean 1 Rocket 3.2 21:31:27 10° N 21:35:49 62° ENE 21:36:59 44° SE
Cosmos 2098 Rocket 4.2 21:30:28 10° NNW 21:36:48 61° W 21:39:36 30° SSW
Sich 1 Rocket 3.5 21:34:12 10° N 21:38:35 79° W 21:39:46 48° S
SL-16 R/B 2.1 21:42:01 10° NNW 21:47:45 85° WSW 21:50:00 39° SSE
Cosmos 1025 Rocket 3.3 21:47:07 44° SE 21:47:52 50° E 21:52:01 10° NNE
Cosmos 2237 Rocket 3.6 21:43:28 10° NW 21:48:06 27° WSW 21:50:16 21° SW
NOSS 3-2 (A) 3.1 21:48:36 26° SW 21:51:38 88° NW 21:57:48 10° NE
Cosmos 2227 Rocket 2.9 21:47:45 14° SW 21:52:27 51° WNW 21:57:59 10° NNE
Cosmos 1943 4.3 21:47:50 10° NNW 21:53:05 38° NE 21:56:41 18° ESE
Cosmos 1975 Rocket 4.1 21:54:33 29° ESE 21:55:17 31° E 21:59:12 10° NNE
Nadezhda 3 Rocket 4.1 21:49:48 10° N 21:56:02 69° E 21:58:44 35° SSE
Cosmos 2082 3.6 21:54:18 39° S 21:56:21 69° ESE 22:01:57 10° NNE
H-2A R/B 2.7 21:56:06 46° SSW 21:56:59 57° W 22:01:07 10° NNW
SL-12 R/B(2) 4.4 21:52:02 11° SW 21:59:48 82° NW 22:09:41 10° NE
NOSS 3-2 (C) 3.3 22:02:06 42° SSE 22:03:28 53° ESE 22:09:19 10° NE
Cosmos 1455 Rocket 3.5 21:59:40 10° N 22:04:02 53° ENE 22:05:09 41° SE
ARIANE 5 R/B 4.0 22:03:45 23° WSW 22:04:54 26° W 22:08:36 10° NW
Cosmos 1825 2.9 22:06:40 34° W 22:07:09 36° WNW 22:10:21 10° N
Cosmos 1674 Rocket 4.5 22:07:23 29° WSW 22:08:57 40° WNW 22:13:01 10° N
Cosmos 2184 Rocket 4.1 22:08:10 32° SSW 22:11:15 73° W 22:17:40 10° N
Spot 4 4.3 22:10:06 38° SW 22:11:24 49° W 22:16:06 10° NNW
Cosmos 2297 Rocket 4.3 22:07:30 10° W 22:11:55 23° NW 22:16:22 10° N
Cosmos 2327 Rocket 4.5 22:18:41 38° SSE 22:21:05 70° E 22:27:12 10° NNE
Cosmos 2219 3.9 22:23:58 20° SW 22:27:37 49° WNW 22:33:04 10° NNE
Cosmos 1461 3.6 22:26:32 29° WSW 22:28:05 46° NW 22:31:51 10° NNE
SL-8 Rocket 4.5 22:26:19 32° SE 22:28:50 49° E 22:34:47 10° NNE
CENTAUR R/B 3.7 22:24:07 10° WSW 22:29:43 42° NW 22:36:37 10° NNE
Cosmos 2263 Rocket 2.4 22:27:07 28° SW 22:29:59 63° WNW 22:35:32 10° NNE
Cosmos 2154 Rocket 4.2 22:27:17 32° SSW 22:30:14 64° WNW 22:36:32 10° N
Orbus 7S? 3.9 22:27:56 10° NW 22:30:29 38° NE 22:31:37 27° E
Cosmos 1818 3.8 22:26:10 10° NW 22:31:31 55° WSW 22:32:53 43° SSW
Cosmos 1937 Rocket 3.4 22:31:10 44° SSW 22:32:54 87° ESE 22:38:09 10° NNE
Cosmos 2227 4.4 22:38:22 41° S 22:40:12 61° ESE 22:45:53 10° NNE
PSLV R/B 3.7 22:36:20 10° N 22:40:29 64° WNW 22:41:24 48° SW
Cosmos 962 Rocket 4.5 22:38:26 38° S 22:41:04 80° E 22:47:23 10° N
Cosmos 1844 Rocket 3.4 22:44:32 33° SE 22:46:02 39° ESE 22:51:10 10° NE
ALOS 2 3.8 22:46:36 27° WSW 22:47:16 28° W 22:51:04 10° NW
USA 234 4.4 22:41:47 10° NE 22:47:54 44° NNW 22:54:00 10° W
Cosmos 923 Rocket 4.2 22:43:20 10° NNW 22:48:29 57° WSW 22:49:49 43° SSW
Cosmos 1898 Rocket 4.1 22:48:08 29° WSW 22:50:30 50° WNW 22:55:33 10° NNE
H-2A R/B 2.0 22:52:04 10° N 22:56:14 72° WNW 22:57:02 54° SW
USA 281 4.4 22:56:14 22° SW 22:58:18 25° WSW 23:03:37 10° NW
Meteor 1-11 4.3 23:01:17 39° SSW 23:03:36 78° WNW 23:09:25 10° N
BlueWalker 3 2.8 23:00:49 10° NW 23:04:27 47° NNE 23:08:04 10° E
Cosmos 921 Rocket 3.7 23:00:57 10° N 23:05:00 46° ENE 23:06:40 29° ESE
Cosmos 864 Rocket 4.5 23:03:50 36° S 23:06:36 81° E 23:12:57 10° N
USA 238 DEB 3.5 23:08:11 34° SSW 23:11:09 84° SE 23:17:54 10° NE
USA 238 3.5 23:08:14 34° SSW 23:11:11 84° SE 23:17:56 10° NE
Cosmos 1437 Rocket 3.4 23:10:54 37° ESE 23:11:24 39° E 23:14:53 10° NNE
Cosmos 1869 3.2 23:11:48 10° NNW 23:15:27 57° W 23:15:40 56° WSW
Cosmos 1544 Rocket 3.5 23:12:53 10° NNW 23:17:18 72° W 23:18:17 51° SSW
Cosmos 1867 3.7 23:19:03 32° SW 23:21:37 73° NW 23:27:08 10° NNE
Cosmos 1680 Rocket 4.2 23:22:26 10° NW 23:27:09 35° WSW 23:28:15 32° SW
Cosmos 724 4.3 23:22:40 10° NNW 23:28:31 82° ENE 23:33:01 18° SE
SL-16 R/B 4.2 23:28:31 10° WNW 23:30:55 13° W 23:31:50 12° WSW
Cosmos 2341 Rocket 4.3 23:28:45 31° SW 23:31:40 55° WNW 23:37:48 10° N
Cosmos 1821 Rocket 4.0 23:32:20 32° S 23:35:19 77° E 23:41:32 10° N
Cosmos 1606 3.7 23:32:31 10° NNW 23:35:42 30° W 23:35:43 30° W
Cosmos 1943 3.9 23:31:58 10° NW 23:37:04 36° WSW 23:38:27 31° SW
Cosmos 1603 3.8 23:31:49 10° NNW 23:37:27 58° WSW 23:39:41 35° S
Cosmos 494 Rocket 4.0 23:37:08 10° NNW 23:42:21 67° WSW 23:44:30 35° S
Helios 1A Rocket 2.7 23:42:09 45° SSE 23:43:15 81° ENE 23:47:03 10° NNW
Lacrosse 5 4.0 23:43:42 12° SE 23:44:59 13° ESE 23:47:06 10° E
Meteor 2-13 Rocket 4.4 23:39:03 10° N 23:45:11 86° W 23:48:34 29° S
Cosmos 2366 rocket 4.4 23:45:43 28° SW 23:48:47 50° WNW 23:54:49 10° N
COBE Rocket 4.2 23:44:46 10° NNE 23:49:54 63° E 23:52:20 30° S
Cosmos 1606 Rocket 3.7 23:47:44 10° N 23:52:10 73° E 23:54:10 31° SSE
Timation 2 Rocket 4.2 23:49:27 29° S 23:52:49 62° ESE 23:59:02 10° NNE
Cosmos 2228 3.7 23:51:03 10° NNW 23:55:01 37° W 23:55:54 33° WSW
